Temp
49 49 46 45 44 39 31 39 29 36 35 42 40 40 39 40 41 40 42 42 41 39 36 37 40 41 42 43 43 44 43 42 41 42 42 42 43 42 42 42 44 43 43 43
44 49 45 42 45 45 40 41 40 41 38 42 42 40 39 39 41 39 40 42 42 41 39 39 41 41 43 42 42 43 42 42 43 42 43 41 42 42 42 41 41 42 41 41
37 44 43 38 44 44 43 44 42 35 39 41 39 41 40 40 41 40 40 41 40 40 39 39 40 42 40 42 43 42 42 43 43 43 42 41 42 42 40 40 40 38 39 42
32 40 31 42 46 47 46 48 47 43 42 43 42 42 41 40 39 39 41 41 41 39 39 39 40 40 41 42 42 42 41 42 43 42 41 41 40 40 40 40 39 39 38 39
31 35 46 41 44 43 43 44 51 46 45 44 42 39 37 43 41 39 38 41 40 40 39 38 39 38 40 40 41 41 41 41 42 42 41 41 39 39 40 40 39 39 40 39
32 30 34 44 47 50 47 37 49 48 45 41 38 26 31 40 42 41 42 43 40 39 39 38 38 38 38 38 39 39 41 42 43 43 41 40 39 39 40 41 42 43 42 40
32 31 41 47 47 48 36 42 48 49 45 41 34 36 39 42 41 42 42 42 41 39 36 38 38 37 37 37 37 41 43 44 44 43 42 41 40 40 39 40 41 39 41 39
33 32 34 47 43 42 46 44 47 47 45 41 39 39 40 41 40 41 41 41 42 37 37 39 39 38 36 35 39 42 43 43 43 42 44 44 40 39 40 38 37 37 38 39
39 41 48 49 44 48 49 46 46 45 45 44 40 39 39 39 39 40 41 40 41 38 38 40 38 38 35 36 39 41 42 42 42 43 43 42 39 38 38 37 37 37 38 37
44 48 47 49 47 48 49 48 49 47 45 44 40 39 39 39 39 39 40 39 40 38 37 37 39 40 37 38 40 40 41 41 41 40 41 41 41 40 37 35 34 36 36 36
45 46 47 49 51 49 49 50 49 47 46 44 42 40 39 39 39 40 40 39 38 38 37 37 39 39 39 39 40 39 41 42 40 41 40 39 41 38 39 38 38 35 35 36
48 55 52 52 54 51 48 47 48 46 44 44 43 40 41 39 40 40 38 38 37 38 37 40 39 39 39 40 39 39 40 41 39 39 39 39 38 38 45 45 45 45 47 44
55 55 49 48 53 52 49 48 48 46 45 42 43 42 41 39 39 42 39 38 37 38 41 41 40 39 40 40 39 40 38 40 39 41 39 37 37 37 35 40 48 47 49 49
51 50 44 48 47 51 50 50 51 47 46 44 43 42 41 39 40 39 37 38 39 41 40 37 38 41 43 43 39 39 40 45 38 38 37 37 37 37 37 36 35 37 45 47
49 49 49 51 50 49 49 48 46 45 44 42 42 41 40 38 36 38 39 39 39 40 40 37 38 41 43 43 40 40 40 38 37 37 38 40 38 38 38 38 37 36 38 41
50 48 49 48 49 48 47 46 45 44 43 42 41 40 40 39 38 39 39 38 36 37 39 39 36 40 42 42 41 39 39 44 42 37 37 38 37 37 37 37 36 36 36 35
45 42 45 45 47 47 47 47 47 45 44 42 41 41 40 38 37 37 38 37 37 40 40 37 36 38 41 42 42 39 37 38 43 38 37 37 36 36 36 36 35 35 35 40
59 56 53 52 49 48 47 47 48 46 44 44 43 41 39 37 36 36 37 36 36 38 39 37 39 39 40 41 42 38 37 37 38 37 37 37 36 36 36 36 36 35 35 39
57 55 53 52 52 51 49 48 48 47 45 44 42 40 39 38 37 37 38 35 34 35 37 39 40 39 39 41 41 36 36 37 37 36 37 39 36 36 35 35 35 35 35 37
56 56 53 52 53 51 49 49 49 46 45 44 42 40 38 38 38 37 37 34 34 36 39 39 38 37 39 40 41 36 37 34 34 34 36 34 34 34 34 38 37 36 35 36
54 55 51 52 51 51 51 50 48 44 44 43 40 39 38 37 38 36 34 32 34 40 39 39 36 38 39 39 38 36 36 35 32 31 31 30 31 32 32 34 34 35 35 35
52 53 50 51 50 49 50 50 48 45 43 41 40 40 38 36 36 35 36 33 35 40 37 36 37 39 39 39 37 36 36 36 36 35 34 34 33 31 30 31 31 32 34 33
51 51 51 50 49 48 48 48 46 44 41 40 39 39 38 37 37 34 30 35 35 39 35 36 39 39 39 37 37 36 36 35 35 35 35 34 34 34 34 33 33 33 31 31
48 48 48 49 48 46 44 44 44 43 41 41 40 40 38 35 33 35 35 39 38 38 36 37 38 40 38 36 36 35 35 35 35 35 35 36 34 34 34 33 33 33 34 34
47 47 48 46 45 45 45 43 41 40 40 39 39 38 38 39 36 34 34 35 39 37 35 39 39 39 36 36 36 35 35 35 35 34 34 34 34 34 34 34 34 34 34 34
46 47 46 46 46 45 44 42 40 39 39 37 37 38 38 38 37 35 34 36 37 37 35 35 35 35 35 35 36 36 36 35 35 34 34 34 34 34 34 34 34 34 34 34
44 45 42 42 43 45 44 42 40 38 40 39 37 37 37 36 36 35 35 33 35 35 35 35 35 35 35 35 36 36 35 35 36 35 35 34 34 34 34 34 35 34 35 35
MSLP
1017.88 1018.21 1019.03 1019.58 1020.24 1021.32 1022.27 1022.03 1022.45 1021.29 1021.45 1021.53 1022.06 1022.86 1023.48 1024.10 1024.58 1025.04 1025.27 1025.81 1026.30 1026.67 1027.05 1027.18 1026.61 1026.27 1025.97 1025.65 1025.18 1024.82 1024.37 1024.04 1023.71 1023.24 1022.81 1022.51 1022.05 1021.43 1021.02 1020.66 1020.21 1019.76 1019.31 1018.81
1018.18 1018.22 1018.92 1019.26 1019.58 1020.16 1021.21 1021.56 1021.43 1021.22 1021.14 1021.24 1022.11 1022.79 1023.62 1024.02 1024.57 1024.99 1025.30 1025.87 1026.30 1026.66 1027.07 1027.14 1026.74 1026.35 1026.02 1025.62 1025.28 1024.82 1024.49 1024.25 1023.74 1023.36 1022.96 1022.71 1022.33 1021.76 1021.14 1020.76 1020.48 1020.21 1019.77 1019.22
1019.02 1018.86 1018.96 1018.65 1017.89 1018.76 1019.08 1019.38 1019.80 1020.35 1020.47 1021.32 1022.21 1022.77 1023.41 1023.84 1024.45 1024.86 1025.22 1025.83 1026.19 1026.66 1026.85 1027.02 1026.67 1026.38 1026.15 1025.68 1025.22 1024.96 1024.73 1024.33 1023.88 1023.51 1023.16 1022.86 1022.57 1022.03 1021.38 1020.89 1020.58 1020.35 1019.96 1019.49
1020.08 1019.16 1018.75 1017.01 1017.08 1017.29 1017.69 1017.94 1018.38 1019.19 1020.25 1021.03 1021.74 1022.46 1023.17 1023.68 1024.34 1024.79 1025.24 1025.70 1026.21 1026.57 1026.88 1026.90 1026.85 1026.65 1026.40 1025.74 1025.35 1025.16 1024.91 1024.55 1023.96 1023.58 1023.30 1022.96 1022.66 1022.22 1021.60 1021.02 1020.68 1020.34 1020.04 1019.64
1021.00 1019.69 1017.46 1017.00 1017.01 1017.01 1017.21 1016.80 1016.70 1018.05 1019.67 1020.89 1022.00 1022.92 1023.44 1023.81 1024.47 1024.87 1025.32 1025.88 1026.34 1026.56 1026.95 1027.15 1027.03 1027.00 1026.63 1026.09 1025.62 1025.27 1024.95 1024.59 1024.07 1023.62 1023.40 1023.08 1022.81 1022.29 1021.67 1021.21 1020.79 1020.35 1019.97 1019.74
1021.36 1020.46 1018.24 1016.36 1016.44 1016.62 1017.02 1016.84 1016.09 1017.18 1019.06 1020.70 1022.28 1023.44 1023.34 1023.69 1024.50 1024.93 1025.37 1025.76 1026.21 1026.58 1026.90 1026.85 1027.15 1027.21 1026.92 1026.40 1025.92 1025.58 1025.06 1024.61 1024.09 1023.71 1023.43 1023.23 1022.84 1022.37 1021.85 1021.35 1020.88 1020.43 1020.08 1019.80
1021.15 1020.12 1017.48 1016.19 1016.51 1016.99 1017.25 1016.41 1016.21 1017.14 1018.69 1020.47 1021.99 1022.47 1022.96 1023.74 1024.52 1024.93 1025.25 1025.78 1026.22 1026.54 1026.70 1026.80 1026.91 1027.04 1026.82 1026.76 1026.35 1025.65 1024.92 1024.45 1024.08 1023.73 1023.42 1023.17 1022.87 1022.43 1022.00 1021.62 1021.10 1020.66 1020.32 1019.90
1020.16 1019.53 1017.09 1016.24 1017.23 1016.93 1015.65 1015.75 1016.46 1017.39 1018.55 1020.13 1021.56 1022.53 1023.33 1024.07 1024.62 1024.95 1025.19 1025.66 1026.04 1026.52 1026.63 1026.55 1026.71 1026.97 1026.85 1026.83 1026.43 1025.68 1024.92 1024.47 1024.05 1023.65 1023.37 1023.14 1023.00 1022.64 1022.30 1022.10 1021.74 1021.15 1020.66 1020.23
1016.69 1015.47 1014.82 1014.95 1014.76 1014.85 1015.23 1015.83 1016.70 1017.65 1018.66 1019.81 1021.39 1022.34 1023.17 1024.05 1024.52 1024.80 1025.08 1025.49 1025.81 1026.29 1026.53 1026.42 1026.55 1026.61 1026.90 1026.92 1026.39 1025.83 1025.07 1024.58 1024.15 1023.82 1023.52 1023.18 1023.05 1022.88 1022.62 1022.42 1022.13 1021.66 1021.17 1020.70
1015.15 1013.61 1014.04 1014.43 1014.68 1015.02 1015.32 1015.95 1016.57 1017.51 1018.65 1019.74 1021.09 1022.07 1022.94 1023.75 1024.30 1024.67 1024.99 1025.52 1025.75 1026.09 1026.45 1026.35 1026.51 1026.61 1026.77 1026.68 1026.39 1025.96 1025.10 1024.57 1024.24 1023.98 1023.56 1023.33 1023.22 1023.06 1022.92 1022.67 1022.37 1022.03 1021.61 1021.11
1013.82 1013.32 1013.63 1013.80 1014.01 1014.62 1015.42 1015.99 1016.85 1017.74 1018.65 1019.74 1020.91 1021.87 1022.59 1023.43 1024.01 1024.45 1024.80 1025.27 1025.70 1025.85 1026.05 1026.23 1026.46 1026.47 1026.49 1026.53 1026.29 1025.84 1025.11 1024.65 1024.34 1024.13 1023.85 1023.63 1023.23 1022.95 1022.67 1022.37 1022.34 1022.21 1021.91 1021.56
1011.51 1011.00 1011.51 1011.85 1012.28 1013.75 1015.04 1015.83 1016.72 1017.62 1018.78 1019.76 1020.61 1021.55 1022.14 1023.04 1023.70 1024.28 1024.66 1025.03 1025.48 1025.69 1025.83 1026.00 1026.23 1026.18 1026.14 1026.24 1026.21 1025.72 1025.15 1024.97 1024.63 1024.33 1024.14 1023.82 1023.53 1022.91 1022.40 1022.28 1022.08 1021.96 1021.72 1021.34
1010.22 1010.45 1011.24 1011.53 1012.03 1013.24 1014.56 1015.49 1016.63 1017.60 1018.34 1019.48 1020.43 1021.21 1021.89 1022.64 1023.35 1024.02 1024.41 1024.83 1025.13 1025.45 1025.55 1025.75 1025.96 1025.95 1025.90 1025.97 1025.96 1025.56 1025.27 1025.11 1024.86 1024.49 1024.42 1024.08 1023.88 1023.48 1023.16 1022.30 1021.94 1021.67 1021.46 1021.22
1010.13 1010.81 1011.78 1012.00 1012.52 1013.48 1014.41 1015.54 1016.27 1017.64 1018.41 1019.19 1020.09 1021.06 1021.80 1022.41 1023.07 1023.78 1024.32 1024.62 1024.83 1025.23 1025.48 1025.62 1025.71 1025.65 1025.74 1025.88 1025.83 1025.42 1025.07 1024.84 1024.70 1024.61 1024.40 1024.40 1024.25 1023.81 1023.29 1023.05 1022.35 1021.94 1021.27 1021.06
1009.97 1010.37 1010.88 1011.55 1012.44 1013.54 1014.47 1015.49 1016.41 1017.19 1018.25 1019.00 1019.87 1020.75 1021.57 1022.14 1022.81 1023.32 1023.86 1024.41 1024.68 1025.10 1025.44 1025.54 1025.51 1025.42 1025.58 1025.59 1025.51 1025.25 1024.93 1024.86 1024.90 1024.84 1024.61 1024.25 1024.03 1023.95 1023.58 1022.97 1022.54 1022.11 1021.54 1021.33
1009.55 1010.48 1011.16 1011.79 1012.49 1013.32 1014.15 1015.16 1015.95 1016.57 1017.68 1018.40 1019.34 1020.33 1021.21 1021.85 1022.40 1022.87 1023.54 1024.22 1024.56 1024.79 1025.17 1025.37 1025.40 1025.36 1025.43 1025.50 1025.44 1025.20 1024.91 1024.71 1024.63 1024.66 1024.54 1024.41 1024.33 1023.98 1023.50 1023.10 1022.84 1022.44 1022.21 1021.90
1009.51 1010.60 1010.99 1011.50 1011.82 1012.40 1012.85 1013.85 1014.78 1015.76 1016.86 1017.81 1018.64 1019.78 1020.75 1021.69 1022.23 1022.77 1023.25 1023.91 1024.36 1024.52 1024.88 1025.20 1025.26 1025.31 1025.31 1025.33 1025.33 1025.07 1024.87 1024.70 1024.50 1024.47 1024.32 1024.19 1024.22 1024.05 1023.70 1023.18 1022.71 1022.62 1022.50 1021.70
1006.13 1006.83 1008.06 1008.67 1010.08 1011.27 1012.41 1013.28 1014.16 1015.15 1016.15 1017.28 1018.17 1019.29 1020.25 1021.19 1021.88 1022.46 1022.96 1023.69 1024.25 1024.51 1024.64 1024.96 1025.12 1025.15 1025.11 1025.07 1024.98 1025.09 1024.91 1024.66 1024.46 1024.31 1023.98 1023.98 1024.00 1023.63 1023.38 1023.18 1023.27 1023.41 1022.79 1021.83
1005.84 1006.49 1007.19 1008.08 1008.91 1009.93 1011.17 1012.26 1013.21 1014.28 1015.46 1016.91 1017.77 1018.67 1019.66 1020.64 1021.46 1022.00 1022.56 1023.43 1024.01 1024.34 1024.42 1024.63 1024.87 1024.94 1024.91 1024.88 1024.88 1024.89 1024.84 1024.67 1024.49 1024.33 1024.10 1023.98 1023.88 1023.47 1023.37 1023.17 1023.01 1022.78 1022.34 1022.06
1004.74 1005.45 1006.20 1007.09 1008.14 1009.03 1010.00 1011.22 1012.38 1013.57 1014.48 1016.13 1017.40 1018.35 1019.37 1020.20 1020.92 1021.69 1022.30 1023.12 1023.62 1023.97 1024.25 1024.45 1024.64 1024.80 1024.79 1024.76 1024.83 1024.88 1024.98 1024.96 1024.79 1024.64 1024.42 1024.35 1024.21 1023.93 1023.59 1023.32 1023.16 1022.93 1022.52 1022.53
1003.97 1004.91 1005.77 1006.43 1007.28 1008.29 1009.26 1010.42 1011.51 1013.04 1013.96 1015.19 1016.68 1017.69 1018.80 1019.63 1020.57 1021.41 1022.14 1022.81 1023.34 1023.66 1024.07 1024.37 1024.40 1024.56 1024.63 1024.68 1024.83 1025.03 1025.21 1025.19 1025.11 1025.18 1025.26 1025.18 1024.79 1024.40 1024.27 1024.03 1023.66 1023.33 1023.04 1022.63
1003.78 1004.47 1005.32 1006.05 1007.00 1008.07 1008.96 1009.90 1011.11 1012.72 1013.88 1015.05 1016.34 1017.39 1018.56 1019.50 1020.34 1021.13 1021.54 1022.11 1022.90 1023.44 1023.87 1024.15 1024.26 1024.32 1024.52 1024.70 1024.80 1024.91 1025.12 1025.28 1025.32 1025.36 1025.28 1025.17 1025.17 1025.09 1024.91 1024.72 1024.50 1024.21 1023.77 1023.05
1003.40 1003.91 1004.82 1005.65 1006.45 1007.53 1008.80 1009.70 1010.93 1012.22 1013.20 1014.62 1015.53 1016.52 1017.73 1018.67 1019.55 1020.56 1021.36 1021.81 1022.35 1023.18 1023.65 1023.87 1024.05 1024.17 1024.41 1024.70 1024.88 1024.92 1025.03 1025.19 1025.29 1025.29 1025.24 1025.25 1025.27 1025.21 1025.04 1024.85 1024.60 1024.27 1023.91 1023.65
1003.51 1004.12 1004.97 1005.90 1006.86 1007.94 1008.95 1009.78 1010.76 1012.04 1013.13 1014.51 1015.31 1015.93 1017.00 1018.37 1019.53 1020.19 1020.68 1021.38 1022.11 1022.86 1023.52 1023.65 1023.82 1024.08 1024.38 1024.65 1024.92 1025.04 1025.06 1025.15 1025.23 1025.25 1025.22 1025.15 1025.17 1025.06 1024.95 1024.79 1024.41 1024.08 1023.85 1023.57
1003.60 1004.14 1004.81 1005.72 1006.63 1007.38 1008.30 1009.54 1010.91 1012.08 1013.09 1014.26 1015.20 1015.88 1016.71 1017.59 1018.23 1019.78 1020.56 1021.28 1021.95 1022.65 1023.26 1023.59 1023.67 1023.94 1024.26 1024.61 1024.84 1025.09 1025.04 1025.05 1025.14 1025.27 1025.27 1025.10 1025.00 1024.98 1024.92 1024.67 1024.41 1024.15 1023.83 1023.48
1004.06 1004.57 1005.22 1005.78 1006.43 1007.44 1008.52 1009.47 1010.50 1011.51 1012.54 1013.83 1014.90 1015.50 1016.47 1017.33 1018.22 1019.39 1020.40 1021.02 1021.68 1022.38 1022.95 1023.49 1023.83 1023.88 1024.14 1024.57 1024.88 1025.07 1025.15 1025.11 1025.12 1025.21 1025.27 1025.22 1025.04 1024.97 1024.85 1024.69 1024.49 1024.22 1023.84 1023.40
1004.65 1004.95 1005.68 1006.48 1006.98 1007.51 1008.36 1009.43 1010.27 1010.89 1011.57 1012.61 1013.86 1015.03 1016.06 1017.05 1018.11 1019.23 1020.13 1020.90 1021.53 1022.11 1022.81 1023.36 1023.86 1024.04 1023.99 1024.36 1024.81 1025.05 1025.20 1025.22 1025.16 1025.22 1025.20 1025.21 1025.12 1024.97 1024.89 1024.71 1024.36 1024.09 1023.73 1023.31
Wind_Speed
5 5 3 4 6 9 8 8 4 4 5 6 7 7 6 7 4 2 3 4 3 4 5 6 7 6 6 6 6 7 7 7 7 7 7 7 10 7 6 7 10 7 10 11
4 6 4 5 8 9 11 9 13 14 14 7 7 7 6 7 5 2 2 3 3 4 5 5 7 6 7 6 6 6 6 7 7 7 7 6 10 10 6 6 6 8 9 11
3 3 4 8 13 12 7 8 6 6 4 8 5 6 7 7 6 3 2 2 2 4 2 3 6 6 7 7 6 7 6 7 7 7 7 6 8 10 8 6 6 5 6 8
4 1 3 2 3 1 11 6 12 3 7 8 4 5 6 4 6 5 3 1 3 3 3 4 6 6 8 7 6 6 6 7 7 6 6 6 6 9 7 5 6 4 4 6
3 3 5 2 5 6 8 8 15 10 9 8 7 5 5 8 5 5 3 3 2 3 4 5 5 6 8 7 6 6 6 6 7 7 6 6 7 7 7 6 5 5 4 5
2 3 6 2 5 2 3 6 6 10 10 10 9 3 4 9 8 6 4 3 4 5 2 4 4 5 7 6 6 7 7 7 7 6 6 6 7 7 5 5 6 5 6 5
3 3 8 4 8 4 3 8 6 9 10 10 7 4 7 9 7 5 4 5 3 5 3 3 3 4 6 6 7 8 6 6 6 6 6 6 6 5 6 6 7 6 7 6
3 2 10 10 5 8 5 3 7 7 8 10 10 9 8 7 7 6 6 6 5 2 3 3 4 4 5 6 7 11 7 6 6 5 5 5 7 6 5 6 7 7 7 7
11 9 1 15 1 5 5 6 7 8 8 9 11 8 9 7 7 7 6 6 4 3 2 3 4 2 4 5 8 11 8 6 6 6 6 5 5 6 4 6 6 7 7 7
3 4 7 12 4 5 5 6 7 8 8 10 10 9 9 7 6 6 6 5 5 4 5 1 2 2 2 4 6 10 8 6 5 6 6 6 3 3 4 4 5 6 7 8
5 2 3 7 14 10 7 8 8 10 8 9 10 9 8 7 7 6 6 6 5 5 4 1 3 1 2 4 6 8 7 5 4 5 5 5 5 2 2 1 1 3 4 4
8 10 7 5 16 16 12 12 12 13 10 8 9 9 8 7 6 5 6 6 5 5 4 3 2 4 2 2 5 7 6 4 5 4 4 4 4 4 6 7 6 6 9 8
3 7 3 2 10 16 13 14 13 13 12 11 9 7 8 7 7 7 6 6 6 6 4 3 3 3 2 3 6 7 5 5 4 5 4 4 5 4 5 6 7 10 9 11
7 8 4 5 7 14 11 12 16 11 8 10 9 9 7 7 7 7 6 6 6 6 7 4 3 3 3 5 6 7 5 9 3 4 4 4 5 5 4 4 5 5 5 9
11 4 1 7 12 12 11 14 14 14 13 11 9 9 8 8 8 7 7 6 5 6 7 4 4 3 2 4 6 6 5 3 4 5 4 5 4 4 4 5 4 4 4 5
9 8 7 10 15 15 16 16 16 16 15 12 12 11 9 8 8 7 7 6 5 6 7 6 3 1 2 3 5 5 5 9 3 3 4 4 4 5 5 5 5 5 5 3
9 7 9 10 17 20 22 18 15 16 15 15 14 12 10 8 7 7 7 7 5 6 6 5 3 1 2 3 5 4 4 4 8 3 3 4 3 4 5 5 4 4 4 5
19 15 15 14 19 19 19 18 15 16 16 15 14 13 11 10 9 8 7 7 5 6 6 5 3 2 1 3 3 4 4 4 4 3 3 3 3 4 4 4 5 5 5 4
15 11 15 13 19 19 18 18 17 16 16 15 15 15 12 9 8 8 8 7 6 6 5 5 5 3 2 2 2 3 4 4 4 4 3 6 5 4 4 4 3 4 5 4
14 13 13 13 17 19 19 17 17 17 17 16 14 13 12 9 8 8 8 7 6 4 4 5 3 2 2 2 2 3 5 5 5 5 4 4 4 5 5 6 5 5 5 5
13 14 15 16 18 18 18 18 18 18 18 17 17 15 13 10 9 8 7 6 6 7 5 5 3 2 2 2 3 2 2 4 4 4 5 5 6 7 7 7 5 5 5 5
9 13 14 14 16 16 16 17 17 16 17 17 15 13 13 11 10 7 6 6 6 12 5 3 2 2 2 4 2 2 1 3 4 4 5 5 6 6 5 6 7 8 8 6
10 10 13 15 17 16 16 17 17 18 19 17 17 16 14 10 9 10 7 7 7 10 4 3 4 5 5 2 1 2 2 2 2 2 2 3 3 5 6 7 7 7 7 7
8 8 9 10 13 15 17 17 16 16 16 14 14 15 14 10 5 4 6 14 15 13 5 5 6 7 6 2 2 2 2 2 2 2 2 5 3 3 3 4 5 5 7 9
7 8 12 14 16 14 17 16 15 14 15 14 13 12 12 8 7 8 8 8 16 11 5 9 10 9 4 3 3 2 2 2 3 2 2 2 2 3 3 5 4 6 6 5
7 7 8 11 10 10 11 13 12 12 13 13 11 10 10 8 10 11 9 12 10 12 5 5 4 4 5 4 3 3 2 3 3 3 2 3 3 3 3 4 5 5 5 5
4 7 6 5 6 9 11 13 13 14 15 14 13 11 11 11 12 12 14 10 9 8 6 5 4 5 5 6 4 3 3 2 4 2 2 2 3 3 3 4 4 4 5 6
Wind_Direction
295 126 183 250 191 181 208 232 183 217 296 311 125 137 117 128 145 67 49 36 23 25 30 335 331 355 342 346 349 342 334 351 349 341 343 354 344 346 11 4 357 10 7 359
287 126 211 256 235 201 204 240 270 271 283 111 114 119 160 173 131 113 41 45 29 41 28 332 325 354 345 336 351 335 345 350 346 348 345 12 349 339 354 353 10 19 3 359
263 180 265 282 222 194 197 189 198 220 206 147 165 175 189 160 150 151 95 61 15 61 359 332 320 3 336 329 344 337 359 350 346 350 344 7 354 337 331 355 358 32 7 0
252 197 280 222 44 311 200 215 210 181 161 175 158 125 124 139 141 143 117 107 71 61 358 14 331 16 324 325 351 348 357 347 340 345 347 349 354 334 325 338 353 340 4 356
145 238 273 194 213 173 170 266 213 193 164 153 114 116 219 145 128 123 134 111 86 71 45 1 345 349 314 332 346 355 348 339 334 334 348 349 339 333 324 341 338 338 338 3
133 178 227 171 142 74 101 283 172 151 155 145 133 167 215 144 149 156 147 140 109 81 18 291 30 334 317 342 344 343 333 330 329 337 344 350 333 327 322 333 336 337 348 353
206 257 284 138 139 134 125 240 151 143 146 148 172 180 138 125 131 132 144 131 114 113 248 285 71 322 327 351 338 319 316 326 332 346 343 350 333 324 341 345 341 346 349 359
184 177 278 138 77 173 194 79 136 138 145 148 127 126 133 146 139 158 164 141 168 147 264 268 84 321 350 351 319 310 309 333 335 356 342 354 358 335 357 354 344 342 350 349
178 211 126 184 283 181 144 148 161 135 147 138 143 149 147 157 158 170 173 147 151 170 283 289 104 30 359 324 313 316 313 335 337 349 346 350 21 348 356 358 354 350 355 349
71 219 185 197 202 176 166 152 149 133 144 140 149 151 157 155 162 167 162 168 163 170 248 30 9 29 36 328 318 316 310 326 350 340 348 343 5 6 358 359 351 351 352 346
254 204 61 211 204 169 178 143 134 134 147 150 146 154 156 159 165 175 153 156 173 192 209 229 310 8 53 339 318 312 312 329 359 330 334 338 331 243 302 251 307 329 320 330
213 194 177 202 194 165 166 164 156 150 149 154 148 158 149 153 161 170 163 152 181 201 184 223 297 305 94 342 313 302 315 338 330 326 332 336 331 328 266 267 274 296 333 357
213 122 90 38 161 158 164 163 158 158 160 151 152 151 151 146 149 186 140 158 186 194 201 201 236 276 342 35 316 299 312 325 319 326 332 333 337 337 333 329 300 265 305 359
129 110 66 173 173 166 153 160 152 152 152 153 150 147 156 147 156 159 173 186 177 199 207 182 236 263 310 331 305 297 312 316 325 323 324 339 326 317 322 339 324 326 327 8
175 131 138 140 138 154 151 154 162 163 164 159 156 157 157 157 156 186 150 160 178 195 210 190 225 227 281 316 304 305 309 317 350 320 318 314 311 327 324 321 315 311 317 349
146 134 136 154 162 165 165 168 174 172 171 166 162 164 165 160 161 161 145 158 188 189 209 207 212 92 275 290 305 306 321 329 311 313 312 334 340 323 323 323 324 330 340 328
134 176 178 185 180 180 185 180 178 174 168 172 167 159 156 160 147 155 159 158 197 200 200 200 199 171 288 277 294 305 315 311 325 323 327 315 319 328 315 314 314 330 322 317
201 200 191 183 178 178 182 183 178 173 176 171 159 159 159 161 171 168 159 149 168 207 197 195 182 232 241 279 306 315 307 300 312 300 296 328 319 286 295 318 342 349 320 315
195 191 183 177 181 181 177 179 180 168 162 168 164 168 165 161 166 162 144 153 173 195 189 162 193 234 221 251 321 301 308 324 325 327 336 342 329 330 330 328 332 319 316 332
193 195 172 174 174 177 177 177 170 169 163 164 162 158 163 163 151 150 150 162 166 176 151 159 173 231 248 214 335 29 17 346 348 348 352 346 339 331 329 346 348 341 340 345
181 178 175 175 178 178 174 171 168 171 164 161 165 165 163 147 144 152 158 156 170 170 176 163 182 205 251 136 110 98 334 337 348 5 9 349 345 351 355 353 351 353 343 337
169 180 178 172 171 171 172 171 163 162 162 160 159 153 150 150 150 155 167 152 148 167 158 166 164 144 143 146 138 126 92 349 351 358 357 348 345 346 346 350 353 345 345 333
177 175 170 172 172 169 163 165 164 166 161 165 161 158 159 160 159 159 159 153 141 175 158 148 166 161 145 127 106 103 83 47 28 15 353 351 346 346 344 344 343 338 334 333
163 157 159 152 150 157 166 171 164 163 158 161 161 155 149 148 135 145 148 153 154 165 162 162 162 159 146 134 125 97 85 62 50 27 20 12 6 350 349 342 333 330 341 341
156 151 153 160 167 174 165 160 152 153 153 157 155 150 147 155 147 145 139 145 158 157 151 169 157 151 129 124 124 125 107 89 63 37 7 5 3 350 350 352 341 346 351 338
152 164 168 172 168 162 161 158 162 160 155 155 157 152 147 139 137 138 141 149 157 163 141 144 140 137 125 118 109 107 108 105 90 61 20 354 358 1 358 357 354 353 333 326
138 132 135 145 158 162 162 168 167 172 169 164 155 152 145 139 144 141 145 152 157 153 148 146 149 156 140 136 130 111 84 84 70 68 29 10 357 12 358 357 359 343 336 338